Location: Gonep?du
(16.5674°N, 81.2417°E)
Time: 15:11:31
(UTC+00:00)

Daily predictions for brighter satellites

Satellite Brightness Start Highest point End
(mag) Time Altitude Azimuth Time Altitude Azimuth Time Altitude Azimuth
Cosmos 2297 3.7 13:07:17 10° NNW 13:12:58 75° ENE 13:18:36 10° SSE
Cosmos 1833 Rocket 3.3 13:08:07 10° SSE 13:13:02 32° ESE 13:17:56 10° NE
Cosmos 1674 Rocket 3.6 13:10:17 10° N 13:14:42 89° E 13:19:07 10° S
USA 215 4.2 13:10:12 10° ESE 13:15:46 31° NE 13:21:22 10° NNW
YAOGAN 1 2.5 13:12:14 10° SSE 13:16:27 75° ENE 13:20:41 10° N
CARTOSAT-1 3.7 13:12:30 10° SSE 13:16:32 49° ENE 13:20:35 10° N
ATLAS 2AS CENTAUR R/B 3.2 13:10:22 10° SSW 13:17:29 71° WNW 13:24:24 10° NNE
Cosmos 2056 Rocket 4.1 13:13:09 10° SSE 13:18:04 38° E 13:23:00 10° NE
Cosmos 1356 Rocket 3.3 13:14:52 10° S 13:18:48 65° E 13:22:43 10° NNE
Cosmos 1624 Rocket 4.5 13:16:27 10° SSE 13:21:12 38° E 13:25:56 10° NE
Delta 202 3.7 13:22:56 10° W 13:28:11 80° N 13:34:24 10° E
Cosmos 1269 Rocket 4.5 13:23:15 10° N 13:28:14 42° ENE 13:33:12 10° SE
CZ-3 Stage 3 3.0 13:19:24 10° SW 13:30:57 43° SSE 13:34:50 10° E
Cosmos 1140 Rocket 3.6 13:26:43 10° N 13:31:40 53° ENE 13:36:38 10° SSE
Cosmos 1782 Rocket 4.1 13:29:36 10° SSW 13:33:50 62° W 13:38:06 10° N
ARIANE 5 R/B 4.1 13:29:38 10° SSW 13:34:21 37° W 13:39:08 10° NNW
NOAA 6 4.0 13:36:16 10° SSE 13:41:17 66° ENE 13:46:19 10° N
Orbus 7S 4.3 13:39:53 10° W 13:42:59 35° SSW 13:44:10 18° SSE
PSLV R/B 3.5 13:41:02 10° SSE 13:45:03 55° ENE 13:49:05 10° N
Cosmos 44 Rocket 3.9 13:41:58 10° S 13:46:16 32° ESE 13:50:42 10° NE
Resurs 01 Rocket 1.5 13:42:10 10° SSE 13:46:31 86° E 13:50:53 10° N
ATLAS 5 CENTAUR R/B 2.9 13:42:59 10° N 13:47:46 35° ENE 13:51:41 18° ESE
SJ-6B 3.0 13:46:27 15° SE 13:49:02 39° ENE 13:52:19 10° N
Cosmos 405 Rocket 2.1 13:50:22 10° N 13:53:19 76° W 13:56:16 10° S
Cosmos 1862 4.1 13:52:06 10° NNE 13:55:00 24° E 13:55:16 24° E
Delta 7925 Rocket 3.3 13:50:53 10° SW 13:55:28 50° SSE 13:58:22 21° E
SWIFT 2.8 13:52:58 10° SW 13:55:31 23° SSE 13:55:44 23° SSE
ARIANE 5 R/B 4.5 13:53:43 10° SW 13:56:47 18° S 13:58:06 15° SSE
GPS 2-12 Rocket1 3.4 13:53:27 10° WNW 13:57:45 54° N 14:00:45 19° ENE
CZ-4C R/B 1.0 13:54:35 10° SSW 13:58:04 59° ESE 14:01:51 10° NNE
Lacrosse 5 rocket 0.5 13:55:29 10° NNW 13:58:39 87° ENE 14:00:06 30° SSE
SJ 16-02 2.6 13:58:44 10° NNE 14:01:56 21° ENE 14:02:01 21° ENE
Cosmos 1371 Rocket 4.3 13:58:29 10° SSW 14:03:40 69° WNW 14:08:56 10° N
Delta 168 3.7 14:01:02 10° SSW 14:03:46 25° SSE 14:03:46 25° SSE
ATLAS 5 CENTAUR R/B 0.6 14:00:12 10° W 14:04:02 50° NNW 14:04:51 32° NE
Milstar 3 4.1 13:58:56 10° WNW 14:04:55 34° N 14:12:18 10° ENE
Cosmos 2058 3.5 14:01:56 10° NNE 14:05:23 30° E 14:05:33 30° E
Cosmos 2151 Rocket 4.1 14:04:45 28° SE 14:06:02 34° E 14:09:59 10° NNE
COSMOS 2455 2.8 14:00:36 10° NNW 14:06:34 71° ENE 14:10:42 21° SSE
NOSS 3-1 (A) 4.4 13:58:48 10° NNW 14:07:23 76° ENE 14:15:21 17° SSE
Okean 2 Rocket 4.2 14:09:10 25° ENE 14:09:10 25° ENE 14:12:12 10° NE
USA 306 2.4 14:06:14 10° SSW 14:10:16 75° SE 14:13:36 12° NE
ISS -1.0 14:09:01 10° W 14:11:38 21° NW 14:14:14 10° N
Hubble Space Telescope 2.6 14:11:31 10° WSW 14:14:06 18° SSW 14:15:15 16° S
Cosmos 1153 Rocket 4.4 14:11:13 10° S 14:17:23 70° E 14:23:38 10° N
Cosmos 1452 Rocket 4.4 14:19:03 29° ENE 14:19:03 29° ENE 14:22:32 10° NE
Cosmos 2173 Rocket 4.3 14:20:00 33° SE 14:21:39 39° E 14:27:15 10° NNE
Aurora 2 Rocket 2.4 14:19:30 10° WNW 14:23:03 60° SSW 14:23:46 51° SSE
Meteor 2-1 Rocket 4.3 14:24:21 27° SSE 14:27:21 54° E 14:32:53 10° NNE
Cosmos 1331 Rocket 3.9 14:22:30 10° S 14:27:43 68° ESE 14:32:55 10° NNE
Delta 2 Rocket 3.8 14:27:44 10° WSW 14:29:45 36° WSW 14:29:45 36° WSW
Cosmos 407 Rocket 3.5 14:29:23 10° NNW 14:34:28 76° WSW 14:36:35 36° S
Cosmos 724 4.2 14:28:47 10° SSW 14:34:53 74° ESE 14:40:54 10° NNE
Mugunghwa Rocket 4.3 14:29:08 10° WNW 14:35:14 52° SSW 14:37:07 39° SSE
Cosmos 1818 3.4 14:37:19 10° NNW 14:42:44 75° ENE 14:43:20 67° ESE
Meteor 1-31 Rocket 4.4 14:44:59 24° N 14:44:59 24° N 14:46:29 10° N
Cosmos 1802 Rocket 4.5 14:48:32 41° ENE 14:48:32 41° ENE 14:53:14 10° NNE
CZ-4B DEB 4.3 14:53:12 59° NE 14:53:12 59° NE 14:58:11 10° N
Okean 1 Rocket 3.9 14:55:06 43° N 14:55:06 43° N 14:58:04 10° N
CZ-4B R/B 4.1 14:56:27 36° NE 14:56:27 36° NE 15:00:23 10° N
GEOS 3 Rocket 3.7 14:55:31 60° NE 14:55:31 60° NE 15:00:25 10° NNW
CSL-04 Rocket 3.9 14:55:02 48° SSW 14:56:31 67° WSW 15:01:59 10° NNW
USA 215 4.0 14:55:56 31° S 14:58:31 45° SW 15:04:40 10° NW
ASTEX 1 3.5 14:58:51 71° WSW 14:58:55 71° W 15:03:50 10° NNW
SPOT 5 3.6 14:59:43 40° WSW 15:00:04 41° W 15:04:07 10° NNW
Cosmos 371 Rocket 4.3 14:55:41 10° NNW 15:00:10 40° W 15:01:03 36° SW
SL-08 R/B 3.7 14:59:21 10° N 15:03:31 60° NW 15:03:31 60° NW
CZ-4 R/B 3.4 15:08:17 22° NNW 15:08:17 22° NNW 15:09:41 10° NNW
Terra 3.3 15:11:30 28° N 15:11:30 28° N 15:13:46 10° N
Cosmos 1459 Rocket 4.1 15:07:41 52° SSW 15:09:17 75° W 15:15:31 10° N
Cosmos 2100 Rocket 4.3 15:09:44 36° SSW 15:12:11 61° W 15:18:18 10° N
Palapa 6 Rocket 4.5 15:10:52 10° WSW 15:17:14 57° SSW 15:17:14 57° SSW
ATLAS 5 CENTAUR R/B 4.1 15:25:30 10° WNW 15:29:49 23° WSW 15:30:50 22° SW
Cosmos 2082 Rocket 4.0 15:35:44 23° N 15:35:44 23° N 15:37:49 10° N
SJ 16-02 4.1 15:37:10 10° WNW 15:38:32 14° W 15:38:32 14° W
ATLAS 3B R/B 4.3 15:55:25 10° N 15:59:03 27° NNE 15:59:03 27° NNE
Milstar 3 4.3 16:42:19 10° WNW 16:47:25 43° NNW 16:47:25 43° NNW
Atlas Centaur 2 4.4 20:28:36 31° ENE 20:28:36 31° ENE 20:32:30 10° ENE
H-2A R/B 4.1 21:05:46 10° NNE 21:07:57 25° NNE 21:07:57 25° NNE
Resurs 1-4 Rocket 4.2 21:20:43 10° N 21:22:06 19° N 21:22:06 19° N
Ariane H10+ 4.5 21:28:38 53° SSW 21:30:44 56° S 21:44:24 10° ESE
ADEOS II 3.7 21:28:39 10° N 21:31:04 29° N 21:31:04 29° N
ARIANE 5 R/B 4.4 20:57:02 10° W 21:38:05 35° SSE 21:40:54 10° ESE
Delta 7925 Rocket 4.3 21:38:02 88° NW 21:38:07 89° NNE 21:47:18 10° ESE
EPKM 4.5 21:45:25 40° ESE 21:45:25 40° ESE 21:52:00 10° ESE
IUS R/B (1) 3.7 21:23:30 10° WNW 21:45:03 87° SSW 21:48:54 10° ESE
CZ-2D R/B 3.9 21:43:16 10° N 21:45:14 21° NNW 21:45:14 21° NNW
ARGOS 3.3 21:47:43 10° NNE 21:52:49 67° E 21:52:49 67° E
USA 267 3.0 21:48:29 10° NE 21:55:03 83° NW 21:55:34 76° WSW
CENTAUR R/B 3.5 21:58:28 26° NNW 21:58:28 26° NNW 22:01:32 10° N
H-2A R/B 3.4 21:54:04 10° NNE 21:57:03 35° ENE 21:57:03 35° ENE
Centaur D-1AR AC-36 3.4 21:35:30 10° W 21:58:59 64° N 22:03:27 10° E
GPS 2-17 Rocket1 3.5 22:06:52 56° NE 22:06:52 56° NE 22:10:40 10° ENE
Cosmos 1844 Rocket 3.6 22:09:19 34° NW 22:09:19 34° NW 22:13:12 10° N
Atlas Centaur 2 3.9 22:10:29 27° WNW 22:13:58 38° NNW 22:21:26 10° NE
Cosmos 1538 Rocket 4.3 22:13:20 42° SSE 22:14:52 60° ESE 22:19:56 10° NNE
Cosmos 1470 Rocket 3.6 22:10:54 10° N 22:14:48 70° NNE 22:14:48 70° NNE
AQUA 3.9 22:13:26 10° N 22:17:34 61° NW 22:17:34 61° NW
NOSS 3-2 (A) 2.5 22:21:38 77° WSW 22:21:53 81° WNW 22:26:46 10° NNE
Cosmos 2154 Rocket 4.4 22:18:26 10° N 22:24:34 62° E 22:30:41 10° SSE
Spot 2 4.4 22:25:01 58° W 22:25:01 58° W 22:29:36 10° NNW
ISS -0.3 22:25:44 10° NNE 22:27:13 12° NE 22:28:42 10° ENE
SL-24 R/B - RUBIN 2 4.3 22:27:49 30° S 22:30:11 58° ESE 22:34:52 10° NE
CZ-2C R/B 2.6 22:27:02 10° NNE 22:31:31 62° E 22:34:16 23° S
Palapa 6 Rocket 3.0 22:32:06 59° WSW 22:32:48 68° SSW 22:37:06 10° ESE
Cosmos 2184 Rocket 3.9 22:28:44 10° N 22:34:53 89° E 22:41:05 10° S
Cosmos 2074 Rocket 3.9 22:29:17 10° N 22:35:33 86° W 22:41:47 10° S
NOSS 3-2 (C) 4.3 22:32:47 13° S 22:36:19 31° ESE 22:40:34 10° NE
GPS 2-15 Rocket1 3.1 22:37:30 40° WNW 22:39:01 71° N 22:43:33 10° E
Delta 2 Rocket 3.0 22:39:52 51° NNE 22:39:55 51° NNE 22:42:46 10° ESE
IUS-1 SRM-2 3.0 22:41:12 37° WNW 22:42:18 52° N 22:51:15 10° ENE
SL-16 R/B 3.0 22:38:12 10° SSE 22:44:23 65° ENE 22:50:33 10° N
SL-16 R/B 2.7 22:40:41 10° NW 22:45:49 36° WSW 22:48:01 26° SW
Cosmos 2150 Rocket 4.1 22:41:33 10° NNW 22:46:59 83° ENE 22:52:23 10° SSE
USA 281 3.8 22:46:01 27° SW 22:47:43 31° WSW 22:53:23 10° NW
Okean 1-7 3.8 22:45:19 10° SSE 22:49:16 48° E 22:53:12 10° NNE
Cosmos 1869 Rocket 4.0 22:49:28 10° N 22:53:44 61° E 22:57:57 10° SSE
Cosmos 2285 Rocket 4.3 22:50:40 10° N 22:56:57 72° ENE 23:03:15 10° SSE
Cosmos 1707 Rocket 3.9 22:55:24 10° S 22:59:40 65° E 23:03:55 10° NNE
Cosmos 1862 Rocket 3.6 22:59:27 10° S 23:03:52 85° E 23:08:17 10° N
Cosmos 1610 Rocket 4.4 22:59:22 10° N 23:05:34 84° W 23:11:51 10° S
DELTA 2 R/B (1) 3.9 23:04:08 12° WNW 23:08:49 42° SW 23:13:59 10° SSE
Cosmos 2344 4.4 23:04:33 18° WSW 23:10:21 35° WNW 23:17:11 10° N
FUSE 4.1 23:07:30 20° W 23:11:10 68° NNW 23:16:25 10° ENE
Intelsat 5-1 Rocket 3.8 23:08:23 14° WNW 23:12:22 51° N 23:24:06 10° ENE
SL-24 DEB 4.1 23:08:25 10° S 23:12:57 75° W 23:17:28 10° N
Meteor 1-28 Rocket 4.4 23:11:55 10° SSE 23:14:56 38° ENE 23:17:57 10° N
Cosmos 1441 Rocket 3.8 23:17:02 19° SW 23:18:37 27° W 23:21:31 10° NNW
SJ-11-01 4.4 23:14:53 10° N 23:19:20 52° WNW 23:23:48 10° SSW
Stardust Del rocket 4.2 23:18:55 10° WNW 23:21:38 24° N 23:23:44 10° ENE
NOSS 2-3 (E) 3.5 23:30:55 10° SW 23:35:20 55° WNW 23:39:02 10° NNE
Cosmos 2084 3.2 23:31:24 10° NNW 23:35:29 82° WSW 23:39:32 10° SSE
NOSS 2-3 (D) 3.5 23:31:03 10° SW 23:35:33 60° WNW 23:39:17 10° NNE
Ariane H10+ 4.5 23:21:26 12° WSW 23:35:37 54° S 23:46:26 10° ESE
Cosmos 2341 Rocket 4.2 23:29:59 10° N 23:36:20 79° E 23:42:36 10° S
Meteor 2-5 Rocket 3.7 23:30:51 10° S 23:36:23 82° W 23:41:54 10° N
Cosmos 1943 3.7 23:32:27 10° NW 23:37:30 36° WSW 23:42:35 10° S
H-2A R/B 3.4 23:38:23 10° NNE 23:42:11 77° ESE 23:45:59 10° S
Cosmos 1939 Rocket 4.0 23:40:42 10° NNW 23:43:36 22° WNW 23:46:31 10° SW
Cosmos 1680 Rocket 3.7 23:39:12 10° SSW 23:44:19 55° WNW 23:49:25 10° N
IRS-1D 3.7 23:40:08 10° NNE 23:45:26 85° ESE 23:50:45 10° SSW
Cosmos 1400 Rocket 3.1 23:41:57 10° NNW 23:45:29 39° W 23:49:00 10° SSW
CZ-3 R/B 2.7 23:25:03 10° WNW 23:45:42 73° SSW 23:51:51 10° SE
Centaur D AC-29 2.1 23:43:38 10° W 23:49:33 38° NNW 23:52:33 10° NE
